Location: Vesunti
(61.5000°N, 22.8333°E)
Time: 04:23:10
(UTC+00:00)

SL-16 R/B - Pass Details

Date: 17 February 2020
Orbit: 985 x 1007 km, 99.5° (Epoch: 09 April)

Event Time Altitude Azimuth Distance (km) Brightness Sun altitude
Exits shadow 00:20:17 24° 329° (NNW) 1,971 4.2 -37.7°
Drops below altitude 10° 00:22:38 10° 337° (NNW) 2,797 5.2 -37.5°
Sets 00:25:11 0° 341° (NNW) 3,752 6.0 -37.4°
